Lapse_Rate
5.8 5.7 5.9 5.9 5.7 5.7 5.8 6.0 6.1 6.1 6.5 7.4 7.6 7.6 7.2 7.0 7.1 7.0 6.8 6.7 7.0 7.0 6.9 6.9 7.1 7.1 6.6 6.3 6.4 6.7 6.3 6.3 5.4 5.1 5.5 5.4 5.2 4.6 4.7 4.4 5.3 5.0 5.5 6.3 6.9 6.9 6.9
5.8 5.7 6.0 6.1 5.8 5.7 6.0 6.1 6.2 6.2 6.5 7.3 7.3 7.2 7.0 7.2 6.8 6.8 6.6 6.7 6.7 6.7 6.8 6.8 6.9 6.9 6.8 6.8 6.7 6.8 6.6 6.3 6.1 5.3 5.5 5.6 5.7 4.9 5.1 4.9 5.3 5.2 5.7 6.2 6.6 6.8 6.8
5.8 5.7 6.1 6.2 5.9 5.9 6.0 6.1 6.3 6.2 6.4 6.8 6.7 6.8 6.5 6.7 6.7 6.9 6.6 6.7 6.7 6.7 6.6 6.8 7.0 7.2 7.0 6.8 6.6 6.0 5.8 6.1 6.1 5.8 5.6 5.6 5.0 5.2 5.0 5.9 5.5 5.8 5.9 6.2 6.2 6.3 6.3
5.8 5.8 6.0 6.3 6.0 5.9 5.9 6.1 6.4 6.3 6.6 6.8 6.7 6.7 6.4 6.4 6.6 6.7 6.5 6.7 6.7 6.8 6.7 6.7 6.7 7.2 7.0 6.9 6.4 5.8 5.5 5.8 6.4 6.1 6.0 5.0 4.9 5.2 5.1 5.5 5.6 6.0 5.9 6.0 6.0 6.1 6.1
5.8 5.8 6.0 6.3 6.1 5.9 5.9 6.1 6.4 6.5 6.6 6.9 6.7 6.5 6.5 6.5 6.5 6.6 6.6 6.4 6.6 6.5 6.6 6.6 6.8 6.9 6.8 6.5 6.4 6.3 5.9 6.0 5.6 6.3 6.5 5.8 5.4 5.5 5.7 5.9 6.0 6.0 5.5 5.7 5.8 6.0 6.2
5.9 5.8 6.0 6.2 6.2 6.0 5.8 5.9 6.3 6.7 6.6 6.7 6.7 6.8 6.5 6.3 6.4 6.4 6.4 6.5 6.5 6.4 6.4 6.6 6.5 6.6 6.9 6.4 6.5 6.6 6.3 6.5 5.9 6.4 6.2 5.9 5.7 6.0 5.8 5.8 5.7 5.8 5.6 5.5 5.9 5.9 5.9
5.9 5.8 6.0 6.1 6.1 6.1 5.9 5.7 6.1 6.5 6.9 6.8 6.7 6.8 6.8 6.7 6.7 6.5 6.4 6.7 6.5 6.2 7.0 6.5 6.6 6.9 6.7 6.1 6.3 5.6 5.5 5.2 6.1 5.7 5.9 5.9 5.9 5.9 6.1 6.3 6.4 6.3 6.1 6.1 5.9 6.3 6.0
5.9 5.9 5.8 6.0 6.1 6.1 6.0 5.8 5.8 6.1 6.7 7.1 6.9 6.7 6.6 6.8 6.5 6.4 6.5 6.8 6.5 6.4 6.4 6.4 6.8 6.6 6.0 6.3 5.8 5.6 5.5 5.5 5.6 6.1 5.8 6.1 6.4 6.3 6.0 6.1 6.2 6.2 6.6 5.8 6.4 6.2 5.9
6.1 5.9 5.8 5.9 6.0 6.0 5.9 5.9 5.7 5.9 6.2 6.5 7.0 7.0 6.8 6.8 6.7 6.3 6.5 6.9 6.8 6.6 6.5 6.4 6.3 6.3 5.8 5.7 5.6 5.3 5.1 5.1 5.6 6.1 6.7 6.3 5.5 6.0 6.2 6.4 6.5 6.6 6.4 5.9 6.2 6.1 5.9
6.0 6.0 5.9 5.8 5.9 5.9 5.9 5.8 5.7 5.9 6.3 6.4 6.4 6.5 7.0 6.8 6.8 7.2 7.2 7.1 6.8 6.7 6.5 6.0 5.9 6.1 5.9 5.9 5.6 5.2 5.2 5.9 6.3 6.7 6.3 6.8 6.4 6.2 6.1 6.2 5.9 6.3 6.1 6.1 6.1 6.0 6.0
6.1 6.0 5.9 5.9 5.9 5.9 5.9 5.8 5.9 5.7 6.2 6.6 6.3 6.4 6.8 7.1 6.8 7.0 7.2 7.1 6.6 6.4 6.6 5.7 5.5 5.6 5.5 5.5 5.0 5.4 5.8 6.1 6.3 6.9 6.9 6.3 6.5 5.9 6.0 6.4 6.1 6.1 6.2 6.2 6.1 5.6 6.0
6.2 6.1 6.0 5.9 5.9 5.9 6.0 5.8 5.9 5.9 6.0 6.6 6.2 6.4 6.8 6.8 6.8 7.1 7.1 7.0 6.6 6.3 5.9 5.6 5.4 5.3 5.1 5.2 5.5 5.5 5.7 6.5 6.5 7.3 7.2 6.8 6.8 6.3 6.2 6.1 6.3 6.3 6.3 6.2 6.1 5.8 5.8
6.3 6.2 6.1 6.0 5.9 6.0 6.0 6.0 5.9 6.0 6.0 6.3 6.5 6.6 7.0 6.9 6.9 7.1 6.8 6.7 6.0 5.3 5.1 5.0 5.1 4.9 4.8 4.9 5.4 5.6 6.2 6.4 6.7 6.6 6.3 6.6 6.9 6.6 6.3 6.3 6.2 6.3 5.7 5.5 5.6 5.6 6.2
6.3 6.4 6.2 6.1 6.1 6.0 6.1 6.2 6.0 6.1 6.2 6.2 6.5 6.5 6.7 6.8 6.9 7.0 6.6 6.4 5.5 5.0 4.7 5.0 5.0 5.0 5.1 5.2 5.6 6.3 6.5 6.7 6.9 7.1 6.4 6.4 5.9 6.4 6.1 5.8 5.4 5.5 5.7 6.0 5.8 6.5 6.7
6.4 6.3 6.3 6.2 6.3 6.1 6.2 6.3 6.2 6.1 6.3 6.3 6.5 6.6 6.5 6.7 6.6 6.4 6.2 6.2 4.7 4.8 4.9 4.7 5.2 5.7 6.0 6.2 6.2 6.5 6.7 6.9 7.2 7.0 7.1 6.6 6.0 6.6 6.3 6.2 6.2 6.0 5.7 6.2 5.8 5.9 6.2
6.5 6.3 6.3 6.1 6.3 6.3 6.1 6.3 6.4 6.3 6.2 6.4 6.4 6.7 6.8 6.5 6.7 6.7 6.1 5.5 5.0 5.2 5.2 5.4 5.3 5.5 6.0 6.0 6.6 7.0 6.9 7.4 7.4 7.5 7.4 6.7 6.0 5.7 6.3 6.3 6.2 6.1 6.1 5.9 5.8 6.0 6.8
6.5 6.4 6.4 6.1 6.2 6.3 6.3 6.3 6.4 6.5 6.4 6.5 6.6 6.3 6.6 6.7 6.6 6.5 6.5 4.5 4.8 5.4 5.7 5.5 5.7 6.0 6.3 6.7 6.8 6.8 6.7 7.2 7.4 7.4 7.3 6.9 6.6 5.8 6.0 6.0 5.7 5.8 5.6 5.9 5.8 5.6 6.8
6.6 6.5 6.5 6.2 6.1 6.2 6.2 6.4 6.4 6.5 6.6 6.5 6.5 6.3 6.1 6.4 6.7 6.8 5.7 5.4 5.0 5.1 5.3 5.8 6.2 6.1 6.2 6.7 6.5 6.5 6.5 6.4 7.4 7.2 6.6 6.9 6.2 5.8 5.7 6.2 6.1 5.9 5.2 5.5 6.1 6.0 5.8
6.7 6.6 6.5 6.5 6.2 6.0 6.2 6.3 6.4 6.5 6.5 6.6 6.5 6.4 6.3 6.2 6.1 6.0 5.8 5.7 5.9 6.1 6.2 6.3 6.5 6.4 6.5 6.6 6.4 6.2 7.0 6.9 7.0 6.9 6.5 6.4 6.0 5.7 5.7 5.7 5.8 5.6 5.7 5.5 5.2 5.5 5.8
6.7 6.5 6.5 6.6 6.5 6.1 6.1 6.2 6.4 6.4 6.5 6.5 6.6 6.4 6.2 6.4 6.2 6.0 5.9 5.9 5.8 5.7 5.8 6.0 6.2 6.4 6.6 6.5 6.7 6.8 6.7 6.5 6.6 6.7 6.5 6.3 5.8 5.7 6.2 5.6 5.5 5.5 5.8 5.7 5.2 5.3 6.2
6.8 6.8 6.7 6.7 6.6 6.3 6.0 6.2 6.2 6.4 6.5 6.5 6.4 6.4 6.3 6.3 6.2 6.2 6.1 6.0 6.1 6.2 6.3 6.2 6.2 6.2 6.2 6.1 6.4 6.5 6.4 6.3 6.3 6.3 6.3 6.2 5.5 6.0 5.9 5.9 5.7 5.4 5.5 5.6 5.4 5.7 5.6
6.8 6.7 6.7 6.6 6.7 6.5 6.2 6.1 6.2 6.2 6.3 6.4 6.3 6.3 6.3 6.2 6.2 6.2 6.1 6.1 6.0 6.1 6.1 6.1 6.0 6.1 6.1 5.8 6.1 5.9 6.0 6.0 5.8 5.9 5.9 5.8 5.8 5.9 5.8 5.9 5.8 5.8 5.7 5.6 5.6 5.5 5.2
6.7 6.6 6.7 6.8 6.7 6.7 6.5 6.2 6.2 6.2 6.2 6.3 6.4 6.3 6.1 6.1 6.0 6.0 6.1 6.1 6.0 6.0 5.8 5.9 6.1 6.0 5.9 5.9 5.9 5.9 5.8 5.8 5.7 5.7 5.6 5.6 5.6 5.6 5.3 5.6 5.5 5.6 6.2 5.9 5.8 5.8 5.7
6.6 6.5 6.5 6.7 6.7 6.7 6.6 6.5 6.3 6.2 6.1 6.2 6.3 6.3 6.3 6.0 6.0 5.9 5.8 5.7 5.7 5.7 5.8 5.7 5.7 5.7 5.9 5.9 5.7 5.5 5.4 5.3 5.4 5.4 5.4 5.3 5.1 5.0 4.6 4.8 5.1 5.7 5.8 5.9 5.9 5.6 5.5
6.4 6.4 6.4 6.5 6.7 6.7 6.7 6.6 6.5 6.4 6.3 6.2 6.1 6.2 6.2 6.1 5.9 5.9 5.9 5.8 5.7 5.6 5.4 5.4 5.4 5.5 5.4 5.3 5.3 5.4 5.4 5.2 5.2 5.1 4.9 4.8 4.2 4.1 4.3 5.0 5.5 5.8 5.8 5.8 5.8 5.6 5.7
6.2 6.3 6.3 6.4 6.5 6.5 6.6 6.6 6.6 6.5 6.4 6.3 6.2 6.2 6.2 6.1 6.0 5.8 5.7 5.8 5.7 5.7 5.6 5.5 5.4 5.2 5.1 5.0 4.9 4.6 5.2 5.0 5.2 5.3 5.1 4.9 4.6 4.2 4.0 4.6 6.4 5.6 5.6 5.7 5.6 4.9 5.4
6.0 6.2 6.3 6.3 6.4 6.4 6.5 6.5 6.5 6.6 6.5 6.3 6.2 6.1 6.1 6.1 6.1 6.0 5.9 5.8 5.6 5.5 5.6 5.6 5.6 5.5 5.2 5.0 4.3 4.5 4.7 5.3 4.9 4.8 5.1 4.7 4.3 4.1 4.1 4.5 5.2 5.7 5.6 5.5 5.5 5.5 5.6
5.9 6.1 6.3 6.2 6.3 6.3 6.3 6.4 6.5 6.4 6.5 6.5 6.3 6.1 6.0 6.0 6.0 6.0 5.9 5.8 5.8 5.6 5.3 5.3 5.3 5.4 5.4 5.1 5.1 5.0 5.1 5.2 5.3 5.4 5.6 5.5 5.1 4.8 4.0 4.1 4.9 5.6 5.5 5.5 5.5 5.5 5.5
5.8 6.0 6.0 6.1 6.2 6.2 6.2 6.1 6.3 6.4 6.3 6.3 6.3 6.2 6.1 5.9 6.0 5.8 5.8 5.8 5.8 5.7 5.6 5.4 5.3 5.3 5.3 5.2 5.2 5.2 5.2 5.5 5.4 5.4 5.7 5.4 5.5 5.4 5.8 5.2 6.0 6.0 5.9 5.9 5.7 5.6 5.5
Wind_Speed
16 17 18 17 16 9 10 12 13 14 14 15 14 16 16 16 14 13 10 9 8 2 1 3 5 10 14 9 2 5 11 15 13 8 15 17 18 15 14 14 9 5 6 4 7 7 7
16 17 18 18 16 10 9 11 11 13 13 14 14 14 14 15 13 10 4 12 11 10 3 5 9 15 11 11 2 4 10 12 7 11 15 17 14 13 11 11 13 7 10 9 6 7 5
15 17 17 18 16 13 8 10 10 11 14 13 14 12 14 15 16 17 14 10 11 10 9 6 17 4 8 5 3 0 6 5 11 8 14 16 12 9 14 9 9 15 11 9 5 4 3
15 16 18 17 17 13 8 9 9 9 12 13 13 13 15 16 17 17 17 13 16 13 11 7 5 7 5 3 1 4 6 2 10 6 11 3 4 5 5 14 8 7 8 8 4 3 2
14 15 16 17 17 14 11 10 9 8 9 11 11 14 15 16 18 16 16 9 8 11 4 2 6 7 5 3 2 3 2 3 10 5 8 7 6 6 9 13 8 11 8 11 6 1 3
13 15 16 16 15 15 12 11 9 7 7 8 11 15 16 17 18 11 8 4 24 17 9 8 5 4 2 5 0 2 1 6 3 13 10 8 5 9 11 13 10 13 11 8 7 6 4
12 14 15 16 15 14 13 11 10 7 5 7 10 14 16 15 20 11 1 5 2 7 12 8 7 7 4 4 3 10 5 9 3 18 13 15 9 13 17 11 3 13 12 11 7 2 4
11 12 14 14 14 13 13 12 10 7 6 6 10 12 15 17 15 14 6 4 3 3 6 14 12 10 5 5 8 10 5 3 9 19 16 10 9 5 4 4 8 13 13 10 4 2 4
10 11 12 14 14 13 11 11 10 8 8 7 9 12 14 17 9 6 10 6 3 3 2 6 6 5 4 7 6 2 5 7 13 16 18 9 7 2 8 10 12 7 13 11 5 5 1
10 10 11 13 14 13 12 10 10 10 10 10 8 11 13 17 1 2 3 3 6 4 2 9 7 5 4 4 5 2 2 3 5 18 20 11 4 8 11 8 2 7 5 7 9 7 2
9 10 11 12 13 14 12 11 9 9 11 11 11 11 12 11 2 1 1 5 5 2 3 11 5 4 4 1 7 3 1 5 8 6 5 5 10 8 8 3 5 6 5 6 4 3 2
10 10 10 11 12 13 13 12 10 9 9 10 9 11 12 3 3 2 3 3 2 2 6 6 7 2 4 5 3 5 3 6 10 21 20 12 6 6 5 11 5 12 10 7 3 1 2
11 11 11 11 12 12 13 14 12 10 10 10 5 7 8 5 3 3 4 2 1 5 1 6 5 5 15 6 6 7 8 5 3 5 4 12 9 5 3 9 4 3 6 2 1 0 1
10 12 12 12 12 13 14 15 13 12 10 8 3 5 1 3 1 4 3 3 8 3 4 2 1 3 12 8 6 4 6 9 7 10 7 4 3 4 5 4 2 3 1 0 3 5 3
9 11 12 13 13 14 15 16 16 15 11 5 2 2 2 1 2 3 3 5 3 3 3 4 5 8 6 4 2 4 7 4 4 6 3 5 4 3 4 3 4 4 3 1 1 2 1
9 10 12 13 14 14 15 16 16 15 5 2 3 2 1 1 3 4 3 6 4 2 2 2 1 3 7 3 3 3 3 2 3 5 5 4 6 1 3 1 5 3 4 2 1 2 3
9 10 11 13 14 14 15 16 16 12 5 6 3 2 2 1 3 2 4 5 6 1 3 3 4 5 5 2 0 3 3 3 3 3 2 5 4 5 3 5 5 3 3 1 2 2 2
9 10 11 13 14 14 16 17 17 14 8 6 2 1 2 2 1 3 3 4 4 3 4 1 2 5 4 1 3 3 5 5 3 1 3 2 4 5 2 3 3 6 5 7 3 4 2
8 10 11 13 14 15 16 19 20 11 5 3 2 1 2 3 2 4 3 3 3 1 2 0 2 4 2 2 1 3 3 4 3 2 2 2 4 5 3 3 3 6 9 5 1 3 6
6 9 11 13 15 16 17 19 19 9 2 3 2 1 2 1 1 2 2 3 5 2 1 0 2 2 5 3 2 5 5 2 2 3 4 3 0 3 0 4 2 5 8 10 8 3 3
5 8 10 12 14 15 17 18 16 6 3 4 2 2 2 1 3 3 1 1 1 1 1 1 1 1 1 3 4 4 4 5 3 1 0 3 1 2 2 1 1 3 6 13 15 12 5
3 6 8 10 12 14 15 16 16 10 8 2 2 1 2 2 0 2 1 2 2 4 1 2 1 2 2 3 4 5 4 4 2 4 2 0 1 1 2 1 4 9 11 12 14 16 16
5 4 7 8 10 13 14 15 16 13 6 2 1 1 3 3 1 2 2 2 2 2 1 3 2 1 3 5 6 6 5 5 4 2 4 2 2 1 1 1 5 9 15 17 10 8 13
8 4 4 6 8 10 13 14 15 12 8 3 2 3 2 2 2 1 1 0 1 1 1 2 1 2 3 6 6 5 6 6 4 5 3 3 2 0 2 3 3 3 4 1 15 8 12
11 8 4 4 6 7 10 12 14 13 9 2 1 2 2 1 1 3 4 2 3 3 2 2 5 4 7 2 1 1 2 1 2 2 1 3 3 2 2 4 5 3 4 5 6 3 3
13 10 7 4 6 5 7 9 11 12 7 3 2 3 2 3 2 2 3 4 2 3 4 3 4 3 0 2 2 3 3 1 3 3 1 1 3 3 2 3 3 5 6 3 2 4 5
15 13 10 6 7 5 5 6 8 10 7 3 2 3 3 2 2 1 1 0 1 0 1 4 5 5 2 3 3 3 2 1 3 5 5 4 4 8 6 4 5 5 6 2 3 4 1
14 14 12 8 8 7 6 5 6 8 8 3 2 3 3 2 2 1 1 2 2 2 2 5 4 3 4 4 2 2 3 3 2 2 5 8 7 4 4 5 5 8 5 3 4 2 4
17 17 15 11 7 10 8 6 6 6 8 3 2 1 2 2 2 2 3 3 3 3 1 3 3 1 1 3 1 1 3 2 3 2 3 4 3 1 6 0 5 6 7 6 4 3 3
Wind_Direction
12 2 4 4 8 13 9 7 5 4 2 4 3 359 1 5 23 42 17 340 344 62 35 248 215 189 162 181 122 26 20 352 312 233 199 191 184 188 185 173 167 143 133 96 116 116 106
11 8 3 8 11 11 11 10 2 2 3 2 1 357 11 18 34 39 351 326 349 340 269 217 190 170 187 167 66 41 40 1 322 204 198 199 187 197 179 163 196 129 128 119 117 117 114
11 9 6 10 8 12 13 11 360 352 2 1 357 1 2 4 5 0 7 237 274 287 309 136 151 159 91 73 342 340 91 300 285 237 190 201 190 176 140 132 126 136 118 122 110 112 100
13 7 9 10 9 13 20 10 1 358 2 15 22 2 2 354 350 354 354 10 36 58 104 118 204 119 73 329 1 92 101 296 328 246 229 182 164 115 171 121 122 163 162 158 121 163 111
8 7 8 8 16 13 20 15 0 3 8 14 13 356 356 350 346 355 353 38 52 49 84 12 46 82 91 314 181 39 90 85 301 203 151 144 181 127 151 151 133 190 182 183 153 159 146
9 5 6 12 14 14 13 12 360 359 11 8 5 351 352 359 355 359 327 352 61 33 17 35 31 94 199 119 213 59 2 16 315 159 134 167 176 160 175 169 176 172 171 170 163 171 218
5 6 4 10 10 18 10 11 3 353 7 354 356 355 359 7 3 6 227 278 221 43 28 33 10 79 77 245 150 51 4 349 259 174 152 177 171 177 176 193 217 166 164 164 104 118 221
1 6 2 6 10 15 11 5 6 360 354 360 353 359 359 357 354 359 65 74 54 45 63 8 17 54 51 327 82 35 328 293 201 162 145 163 163 63 80 154 179 178 168 144 120 139 231
358 359 3 4 7 10 15 1 1 356 346 347 353 352 353 350 340 29 56 55 345 298 78 34 22 6 343 349 86 77 255 256 151 153 149 133 92 148 161 151 163 147 178 164 151 159 170
356 356 357 0 0 5 7 3 356 349 335 326 339 348 346 332 285 351 24 26 349 320 60 13 7 32 332 332 52 310 290 322 128 128 114 93 134 149 125 101 241 118 58 127 131 175 192
355 352 354 355 357 356 357 357 351 347 331 320 332 348 349 20 322 26 320 354 336 246 47 337 356 317 278 72 148 34 6 45 116 159 188 111 112 115 98 18 338 123 143 111 128 111 202
352 351 352 352 354 352 351 350 346 334 323 310 320 330 330 218 117 264 284 311 222 261 41 4 345 27 116 137 91 115 112 91 74 92 83 95 103 40 76 54 109 132 124 101 105 103 217
350 351 351 349 347 347 347 350 345 331 316 310 311 330 318 323 35 240 287 264 327 37 157 360 8 137 112 110 83 100 121 96 134 101 67 78 60 81 47 94 105 197 171 88 123 51 263
349 350 352 351 347 344 345 345 347 334 312 302 291 304 358 346 329 273 251 242 56 341 53 199 297 171 93 108 84 123 116 104 39 113 124 108 137 6 356 12 111 103 282 304 170 181 139
343 347 351 353 351 346 344 342 344 342 310 265 241 205 248 51 300 246 254 60 81 98 102 128 139 115 104 71 105 116 87 96 65 3 110 129 77 99 42 60 322 136 206 12 57 72 269
343 348 350 354 353 349 345 342 344 353 7 267 281 257 52 43 269 237 67 87 92 101 134 239 127 278 128 109 173 143 80 36 78 40 337 107 110 119 120 248 65 332 125 170 140 149 225
345 349 351 355 354 351 345 342 339 340 333 313 269 268 89 254 236 82 52 58 98 70 338 321 36 111 92 115 165 68 52 91 46 54 7 143 129 143 180 203 164 154 200 227 314 280 289
349 349 354 354 355 353 349 342 338 327 306 268 278 21 79 233 94 84 121 144 174 151 181 129 309 67 77 18 60 70 114 45 42 41 120 34 111 143 123 88 315 298 265 230 261 175 257
349 345 356 354 354 356 355 348 346 332 234 306 322 42 224 264 79 105 121 77 350 354 16 111 86 50 62 75 116 93 82 55 55 28 44 123 144 126 153 187 193 232 211 233 338 317 221
344 349 351 356 355 357 2 358 1 26 144 295 288 8 98 84 59 67 112 132 142 161 154 110 90 174 162 125 21 137 124 86 58 69 7 305 31 333 151 59 74 198 202 204 214 216 220
333 346 346 352 357 358 2 5 2 9 342 305 338 53 19 43 86 110 215 108 80 59 37 317 130 336 360 123 125 125 116 136 127 128 103 330 240 38 319 304 284 255 205 204 214 226 235
280 330 344 349 352 358 3 5 2 346 309 269 321 243 197 84 107 275 163 119 159 143 286 115 187 88 33 82 20 159 147 189 134 170 173 223 132 12 251 215 245 252 239 223 227 239 251
257 304 330 345 350 353 0 3 5 357 320 315 87 152 291 120 209 280 46 91 145 164 85 26 105 130 93 70 70 62 60 56 86 183 173 195 150 246 251 124 302 265 237 217 221 227 238
239 244 304 332 346 348 356 3 4 1 348 322 14 296 269 117 231 27 152 91 156 10 29 99 11 313 98 133 119 86 70 69 79 66 9 170 177 218 302 265 244 79 67 16 220 241 235
241 232 253 312 328 340 349 358 5 4 354 343 356 300 306 277 333 177 173 164 148 117 82 68 45 22 147 151 197 161 140 158 150 52 176 330 230 221 254 229 315 172 203 158 185 145 244
239 231 234 265 300 317 336 350 1 6 357 324 29 315 298 301 126 98 174 190 234 197 150 110 92 105 118 263 243 242 224 107 173 159 132 205 261 258 192 260 263 64 136 156 192 163 106
231 227 229 237 284 282 303 331 355 2 359 323 42 348 293 293 98 228 206 261 108 134 48 138 159 170 216 213 239 234 205 3 193 190 167 173 207 226 230 276 288 109 130 167 228 99 35
230 222 228 228 256 270 272 297 332 356 359 314 54 6 329 316 110 259 11 179 150 241 248 120 153 195 180 226 245 194 251 177 234 144 180 180 172 194 195 229 262 155 145 222 102 161 323
220 219 220 219 235 258 247 265 295 336 352 327 271 10 312 291 48 22 40 25 9 29 316 173 355 107 5 248 247 316 231 183 279 213 212 222 244 214 220 180 102 134 79 99 58 355 347